TimeCDT,TemperatureF,Dew PointF,Humidity,Sea Level PressureIn,VisibilityMPH,Wind Direction,Wind SpeedMPH,Gust SpeedMPH,PrecipitationIn,Events,Conditions,WindDirDegrees,DateUTC
12:15 AM,79.9,68.4,68,30.11,10.0,South,9.2,17.3,N/A,,Clear,180,2013-07-10 05:15:00
12:35 AM,79.7,68.4,68,30.11,10.0,South,9.2,-,N/A,,Clear,170,2013-07-10 05:35:00
12:55 AM,78.8,68.4,70,30.12,10.0,South,8.1,-,N/A,,Clear,170,2013-07-10 05:55:00
1:15 AM,78.6,68.5,71,30.12,10.0,South,8.1,-,N/A,,Clear,170,2013-07-10 06:15:00
1:35 AM,77.9,68.9,74,30.12,10.0,South,5.8,-,N/A,,Clear,170,2013-07-10 06:35:00
1:55 AM,77.5,68.7,74,30.12,10.0,South,10.4,16.1,N/A,,Clear,180,2013-07-10 06:55:00
2:15 AM,77.0,68.5,75,30.11,10.0,South,6.9,-,N/A,,Clear,180,2013-07-10 07:15:00
2:55 AM,75.7,68.4,78,30.12,10.0,SSW,4.6,-,N/A,,Clear,200,2013-07-10 07:55:00
3:15 AM,75.2,68.0,78,30.12,10.0,South,5.8,-,N/A,,Clear,190,2013-07-10 08:15:00
3:35 AM,74.7,68.0,80,30.12,10.0,South,5.8,-,N/A,,Clear,180,2013-07-10 08:35:00
3:55 AM,73.9,68.0,82,30.11,10.0,South,6.9,-,N/A,,Clear,170,2013-07-10 08:55:00
4:15 AM,73.2,67.6,83,30.12,10.0,South,5.8,-,N/A,,Clear,180,2013-07-10 09:15:00
4:35 AM,72.7,67.5,84,30.12,10.0,South,4.6,-,N/A,,Clear,180,2013-07-10 09:35:00
4:55 AM,72.5,67.6,85,30.12,10.0,Calm,Calm,-,N/A,,Clear,0,2013-07-10 09:55:00
5:15 AM,71.6,67.1,86,30.12,10.0,Calm,Calm,-,N/A,,Clear,0,2013-07-10 10:15:00
5:35 AM,72.0,68.0,87,30.12,10.0,Calm,Calm,-,N/A,,Clear,0,2013-07-10 10:35:00
5:55 AM,72.0,68.0,87,30.13,10.0,South,4.6,-,N/A,,Scattered Clouds,180,2013-07-10 10:55:00
6:15 AM,71.8,68.0,88,30.13,10.0,Calm,Calm,-,N/A,,Clear,0,2013-07-10 11:15:00
6:35 AM,70.7,67.8,91,30.13,10.0,South,3.5,-,N/A,,Clear,170,2013-07-10 11:35:00
6:55 AM,71.2,68.0,89,30.14,10.0,Calm,Calm,-,N/A,,Mostly Cloudy,0,2013-07-10 11:55:00
7:15 AM,72.1,68.5,88,30.14,10.0,SSE,3.5,-,N/A,,Overcast,160,2013-07-10 12:15:00
7:35 AM,72.9,69.1,88,30.14,10.0,SSW,3.5,-,N/A,,Overcast,200,2013-07-10 12:35:00
7:55 AM,73.8,69.6,87,30.14,10.0,South,5.8,-,N/A,,Overcast,190,2013-07-10 12:55:00
8:15 AM,75.0,69.8,84,30.14,10.0,SSW,5.8,-,N/A,,Mostly Cloudy,200,2013-07-10 13:15:00
8:35 AM,76.1,69.8,81,30.15,10.0,South,9.2,-,N/A,,Mostly Cloudy,190,2013-07-10 13:35:00
8:55 AM,77.0,69.6,78,30.15,10.0,SW,6.9,-,N/A,,Overcast,220,2013-07-10 13:55:00
9:15 AM,78.3,69.1,73,30.15,10.0,South,9.2,-,N/A,,Scattered Clouds,190,2013-07-10 14:15:00
9:35 AM,79.5,68.9,70,30.16,10.0,WSW,10.4,-,N/A,,Mostly Cloudy,240,2013-07-10 14:35:00
9:55 AM,80.8,68.0,65,30.15,10.0,SW,11.5,-,N/A,,Mostly Cloudy,220,2013-07-10 14:55:00
10:15 AM,81.5,67.6,63,30.14,10.0,SSW,11.5,-,N/A,,Scattered Clouds,200,2013-07-10 15:15:00
10:35 AM,82.2,67.6,61,30.13,10.0,South,11.5,-,N/A,,Clear,190,2013-07-10 15:35:00
10:55 AM,83.1,66.6,57,30.14,10.0,SSW,10.4,-,N/A,,Clear,210,2013-07-10 15:55:00
11:15 AM,84.2,66.0,54,30.14,10.0,South,10.4,-,N/A,,Clear,190,2013-07-10 16:15:00
11:35 AM,85.3,66.0,52,30.13,10.0,SSW,9.2,16.1,N/A,,Clear,210,2013-07-10 16:35:00
11:55 AM,86.4,64.9,49,30.13,10.0,SSE,9.2,-,N/A,,Clear,160,2013-07-10 16:55:00
12:15 PM,87.3,65.8,49,30.13,10.0,SSW,5.8,-,N/A,,Clear,210,2013-07-10 17:15:00
12:35 PM,87.3,65.3,48,30.13,10.0,South,3.5,-,N/A,,Clear,170,2013-07-10 17:35:00
12:55 PM,88.5,64.8,45,30.12,10.0,SSW,5.8,-,N/A,,Clear,200,2013-07-10 17:55:00
1:15 PM,90.1,61.5,38,30.11,10.0,Calm,Calm,-,N/A,,Clear,0,2013-07-10 18:15:00
1:35 PM,91.4,60.1,35,30.10,10.0,SSE,5.8,-,N/A,,Clear,160,2013-07-10 18:35:00
1:55 PM,91.2,60.8,36,30.09,10.0,East,5.8,-,N/A,,Clear,90,2013-07-10 18:55:00
2:15 PM,93.4,59.2,32,30.08,10.0,South,8.1,-,N/A,,Clear,190,2013-07-10 19:15:00
2:35 PM,94.1,58.6,30,30.07,10.0,SE,10.4,-,N/A,,Clear,140,2013-07-10 19:35:00
2:55 PM,94.1,59.4,31,30.06,10.0,SE,4.6,-,N/A,,Clear,140,2013-07-10 19:55:00
3:15 PM,93.9,59.2,31,30.06,10.0,SE,10.4,-,N/A,,Clear,130,2013-07-10 20:15:00
3:35 PM,95.0,58.6,30,30.05,10.0,South,4.6,-,N/A,,Clear,190,2013-07-10 20:35:00
3:55 PM,95.4,56.3,27,30.05,10.0,SE,11.5,-,N/A,,Clear,140,2013-07-10 20:55:00
4:15 PM,95.7,54.3,25,30.04,10.0,SSE,9.2,16.1,N/A,,Clear,150,2013-07-10 21:15:00
4:35 PM,95.9,53.8,24,30.04,10.0,SSE,8.1,-,N/A,,Clear,160,2013-07-10 21:35:00
4:55 PM,95.0,57.9,29,30.03,10.0,SSE,9.2,16.1,N/A,,Clear,150,2013-07-10 21:55:00
5:15 PM,94.8,59.4,31,30.02,10.0,SSE,5.8,16.1,N/A,,Clear,160,2013-07-10 22:15:00
5:35 PM,94.8,57.0,28,30.02,10.0,SE,9.2,-,N/A,,Clear,130,2013-07-10 22:35:00
5:55 PM,93.9,57.4,29,30.01,10.0,South,11.5,18.4,N/A,,Clear,170,2013-07-10 22:55:00
6:15 PM,93.7,56.5,28,30.00,10.0,SSE,8.1,-,N/A,,Clear,160,2013-07-10 23:15:00
6:35 PM,92.5,58.1,31,30.00,10.0,SSE,8.1,-,N/A,,Clear,150,2013-07-10 23:35:00
6:55 PM,91.9,59.2,33,29.99,10.0,SSE,8.1,-,N/A,,Clear,150,2013-07-10 23:55:00
7:15 PM,91.8,59.9,34,29.99,10.0,South,9.2,-,N/A,,Clear,190,2013-07-11 00:15:00
7:35 PM,91.0,59.9,35,29.99,10.0,SSE,9.2,-,N/A,,Clear,150,2013-07-11 00:35:00
7:55 PM,90.3,59.9,36,29.99,10.0,SSE,6.9,-,N/A,,Clear,160,2013-07-11 00:55:00
8:15 PM,89.1,59.5,37,30.00,10.0,SSE,4.6,-,N/A,,Clear,160,2013-07-11 01:15:00
8:35 PM,87.8,60.4,40,30.00,10.0,South,5.8,-,N/A,,Clear,170,2013-07-11 01:35:00
8:55 PM,86.9,60.4,41,30.00,10.0,SSE,4.6,-,N/A,,Clear,160,2013-07-11 01:55:00
9:15 PM,85.5,60.4,43,30.00,10.0,SSE,3.5,-,N/A,,Clear,160,2013-07-11 02:15:00
9:35 PM,84.7,60.8,44,30.00,10.0,Calm,Calm,-,N/A,,Clear,0,2013-07-11 02:35:00
9:55 PM,83.5,61.0,46,30.00,10.0,Calm,Calm,-,N/A,,Clear,0,2013-07-11 02:55:00
10:15 PM,83.8,62.2,48,30.02,10.0,SSE,6.9,16.1,N/A,,Clear,160,2013-07-11 03:15:00
10:35 PM,82.9,64.4,53,30.02,10.0,SSE,6.9,-,N/A,,Clear,160,2013-07-11 03:35:00
10:55 PM,82.6,66.0,57,30.04,10.0,South,8.1,-,N/A,,Clear,170,2013-07-11 03:55:00
11:15 PM,81.5,67.1,61,30.04,10.0,South,9.2,-,N/A,,Clear,180,2013-07-11 04:15:00
11:35 PM,81.5,67.1,61,30.04,10.0,South,8.1,-,N/A,,Clear,180,2013-07-11 04:35:00
11:55 PM,80.8,67.1,63,30.04,10.0,South,10.4,-,N/A,,Clear,180,2013-07-11 04:55:00